Temperature
7 7 7 7 7 7 7 7 7 7 7 7 7 7 7 7 7 7 7 7 7 7 7 6 6 6 6 6 6 6 6 5 5 5 6 5 5 5 5 5 5 5 5
6 6 6 6 6 7 7 7 7 7 7 7 7 7 7 7 7 7 7 7 6 6 6 6 6 6 6 6 5 5 5 5 5 5 5 5 5 5 5 5 5 4 4
6 6 6 6 6 6 6 6 6 6 6 6 6 6 6 6 6 6 6 6 6 6 6 6 6 5 5 5 5 5 5 4 4 4 4 4 4 4 4 4 4 4 4
5 5 5 5 5 6 6 6 6 6 6 6 6 6 6 6 6 6 5 5 6 5 5 5 5 5 5 5 5 4 4 4 4 4 4 4 4 4 3 3 3 3 4
4 4 4 5 5 5 5 5 5 5 5 5 5 5 5 5 5 5 5 5 5 5 5 5 5 5 5 4 4 4 4 4 4 3 3 3 3 3 3 3 3 3 3
3 4 4 4 4 4 4 4 4 4 4 5 5 5 5 5 5 5 5 4 4 4 4 4 4 4 4 4 4 4 4 3 3 3 3 3 3 3 3 2 2 2 2
3 3 3 3 3 3 3 3 4 4 4 4 4 4 4 4 4 4 4 4 4 4 4 4 4 4 4 4 3 3 3 3 3 3 2 2 2 2 2 2 2 2 2
2 2 2 3 3 3 3 3 3 3 3 3 3 3 4 4 4 4 3 3 3 3 3 3 3 3 3 3 3 3 2 2 2 2 2 2 2 2 2 2 1 1 1
1 2 2 2 2 2 2 2 2 2 2 3 3 3 3 3 3 3 3 3 3 3 3 3 2 2 3 2 2 2 2 2 2 2 2 2 2 1 1 1 1 1 1
1 1 1 1 2 2 2 2 2 2 2 2 2 2 2 2 2 2 2 2 2 2 2 2 2 2 2 2 2 1 1 1 1 1 1 1 1 1 1 1 0 0 0
0 0 1 1 1 1 1 1 1 1 1 1 1 1 1 1 1 1 1 1 2 1 1 1 1 1 1 1 1 1 1 1 1 1 1 1 1 0 0 0 -0 -0 -0
-1 -0 0 0 0 0 0 0 1 1 1 1 1 1 1 1 1 1 1 1 1 1 1 1 1 1 1 0 0 0 0 0 -0 0 0 -0 -0 -0 -0 -0 -1 -1 -1
-1 -1 -1 -0 -0 -0 -0 -0 -0 0 0 -0 -0 -0 -0 -0 -0 0 0 0 0 0 0 0 0 0 -0 -0 -0 -0 -0 -1 -1 -0 -1 -1 -1 -1 -1 -1 -1 -1 -1
-2 -2 -1 -1 -1 -1 -1 -1 -1 -1 -1 -1 -1 -1 -1 -1 -1 -0 -0 -0 -0 -0 -0 -0 -1 -1 -1 -1 -1 -1 -1 -1 -1 -1 -1 -1 -1 -1 -1 -1 -2 -2 -2
-3 -2 -2 -2 -2 -2 -2 -2 -2 -1 -1 -1 -1 -1 -1 -1 -1 -1 -1 -1 -1 -1 -1 -1 -1 -1 -1 -1 -2 -2 -2 -2 -2 -2 -2 -2 -2 -2 -2 -2 -2 -2 -2
-3 -3 -3 -3 -3 -3 -3 -2 -2 -2 -2 -2 -2 -2 -2 -2 -2 -2 -2 -1 -1 -1 -2 -2 -2 -2 -2 -2 -2 -2 -2 -2 -2 -2 -2 -3 -3 -3 -3 -3 -3 -3 -3
-4 -4 -4 -4 -4 -4 -3 -3 -3 -3 -3 -3 -2 -2 -2 -2 -2 -2 -2 -2 -2 -2 -2 -2 -2 -2 -2 -2 -2 -2 -2 -3 -3 -3 -3 -3 -3 -3 -3 -3 -4 -4 -4
-5 -5 -5 -4 -4 -4 -4 -4 -4 -3 -3 -3 -3 -3 -3 -3 -3 -3 -3 -3 -3 -3 -3 -3 -3 -3 -3 -3 -3 -3 -3 -3 -3 -3 -3 -4 -4 -4 -4 -4 -4 -5 -5
-6 -5 -5 -5 -5 -5 -5 -5 -4 -4 -4 -4 -4 -4 -4 -3 -3 -3 -3 -3 -3 -3 -3 -3 -3 -3 -3 -3 -3 -4 -4 -4 -4 -4 -4 -4 -4 -5 -5 -5 -5 -5 -5
-6 -6 -6 -6 -6 -6 -5 -5 -5 -5 -5 -5 -5 -4 -4 -4 -4 -4 -4 -4 -4 -4 -4 -4 -4 -4 -4 -4 -4 -4 -4 -4 -4 -4 -4 -5 -5 -5 -5 -5 -6 -6 -6
-7 -7 -6 -6 -6 -6 -6 -6 -6 -6 -5 -5 -5 -5 -5 -5 -5 -5 -5 -4 -4 -4 -4 -4 -4 -4 -4 -4 -5 -5 -5 -5 -5 -5 -5 -5 -5 -5 -6 -6 -6 -6 -6
-7 -7 -7 -7 -7 -7 -7 -6 -6 -6 -6 -6 -6 -6 -6 -5 -5 -5 -5 -5 -5 -5 -5 -5 -5 -5 -5 -5 -5 -5 -5 -5 -5 -5 -5 -6 -6 -6 -6 -6 -6 -6 -7
-8 -8 -8 -7 -7 -7 -7 -7 -7 -7 -7 -6 -6 -6 -6 -6 -6 -6 -6 -5 -6 -6 -6 -6 -5 -5 -5 -5 -5 -5 -5 -5 -5 -6 -6 -6 -6 -6 -7 -7 -7 -7 -7
-8 -8 -8 -8 -8 -8 -8 -7 -7 -7 -7 -7 -7 -7 -6 -6 -6 -6 -6 -6 -6 -6 -6 -6 -6 -6 -6 -6 -6 -6 -6 -6 -6 -6 -6 -6 -6 -7 -7 -7 -7 -7 -7
-9 -9 -8 -8 -8 -8 -8 -8 -8 -8 -7 -7 -7 -7 -7 -7 -7 -7 -7 -7 -7 -7 -7 -7 -7 -6 -6 -6 -6 -6 -6 -6 -6 -6 -6 -7 -7 -7 -7 -7 -7 -7 -7
-9 -9 -9 -9 -9 -9 -9 -8 -8 -8 -8 -8 -8 -8 -8 -7 -7 -7 -7 -7 -7 -7 -7 -7 -7 -7 -7 -7 -7 -6 -7 -7 -7 -7 -7 -7 -7 -7 -7 -7 -7 -8 -8
Wind_Speed
3 4 5 5 5 5 5 5 5 4 5 5 6 6 6 6 5 6 6 6 7 6 6 7 7 5 4 4 3 3 3 3 4 3 2 2 3 3 4 6 7 7 8
2 3 4 4 5 5 5 5 5 5 5 5 5 6 5 5 6 6 7 7 7 7 7 6 6 5 5 4 4 4 4 3 3 4 3 2 3 3 3 3 4 6 7
2 3 3 4 4 5 4 4 4 4 4 4 5 6 6 6 6 6 6 6 7 7 7 7 7 6 6 4 5 5 4 3 3 3 3 2 2 2 2 2 3 4 6
1 3 3 4 4 4 4 4 4 4 4 4 5 5 5 5 5 5 6 6 6 6 6 7 7 7 7 6 5 5 4 4 3 3 3 2 2 1 1 2 3 3 4
0 2 3 3 3 3 3 3 3 4 4 4 4 4 4 4 5 5 6 6 6 6 5 6 6 7 8 7 6 6 6 5 4 4 3 2 2 2 3 2 3 3 4
1 0 1 2 3 3 3 3 3 3 3 3 4 4 4 4 5 7 6 5 6 6 6 5 5 6 8 9 9 9 8 7 6 5 4 5 5 4 3 3 3 2 4
1 1 0 1 2 3 3 3 3 3 3 3 3 3 4 4 5 7 7 5 5 5 5 5 4 5 6 6 7 8 8 9 9 7 7 7 6 6 5 4 4 5 5
2 2 1 1 1 2 2 3 3 2 2 2 2 3 3 4 5 6 6 5 4 4 5 5 5 5 6 6 6 5 5 6 7 6 6 6 6 5 6 6 5 4 2
2 1 1 0 1 1 2 2 2 2 2 2 2 2 2 3 4 5 5 3 3 4 4 4 5 5 7 7 6 5 4 4 5 6 6 6 6 6 5 2 2 1 3
2 2 1 1 1 1 2 2 1 2 2 2 1 2 2 2 3 4 4 3 3 3 2 3 5 5 6 7 6 6 6 5 3 2 2 3 3 4 5 5 4 4 2
4 2 1 1 0 1 1 1 2 2 2 1 1 1 2 2 3 3 3 3 3 3 3 3 3 5 6 6 5 5 6 4 3 3 2 1 1 2 2 4 4 4 4
3 3 2 2 1 0 1 1 1 2 3 2 1 1 1 2 2 3 4 3 3 3 3 3 3 5 5 5 4 4 4 3 2 2 1 1 1 2 1 2 3 3 3
3 3 2 2 2 1 0 1 1 2 2 2 2 1 1 1 1 2 3 3 4 3 3 4 4 4 4 3 3 4 3 2 2 2 2 2 2 1 1 0 0 1 2
3 3 3 2 2 2 1 0 1 1 2 2 2 2 1 1 1 1 1 2 2 2 2 2 2 3 2 2 2 2 2 2 3 3 2 1 1 1 1 1 1 1 1
3 3 3 3 2 2 2 1 1 1 2 2 2 2 2 2 3 2 2 2 2 3 2 1 1 1 2 1 1 1 2 2 2 2 2 1 1 1 1 0 1 1 2
3 3 3 2 2 2 2 3 4 2 2 1 1 1 2 2 2 2 2 2 3 4 3 2 2 2 3 3 3 2 2 2 2 2 2 2 2 2 1 1 1 1 2
3 3 3 2 2 2 1 1 2 4 5 3 2 1 0 1 1 2 2 2 2 3 2 3 3 3 3 3 3 3 3 2 2 3 3 3 2 2 2 2 2 2 2
4 4 3 2 2 2 1 1 1 1 2 2 3 3 2 1 1 1 1 1 1 1 2 2 3 3 3 3 3 3 2 2 2 3 3 3 3 2 2 2 2 3 3
4 3 3 2 2 2 2 1 1 1 1 1 2 2 3 3 2 1 1 1 1 1 1 2 2 2 2 2 2 2 3 3 3 3 3 3 3 3 3 3 3 3 3
3 5 4 3 3 2 2 2 1 1 1 1 2 2 2 2 2 2 1 0 1 1 1 1 2 2 2 3 3 3 3 3 3 3 3 3 3 3 3 3 3 3 3
3 4 5 4 3 2 2 2 2 2 2 2 2 2 3 1 1 1 1 1 1 1 1 1 2 2 2 2 3 3 3 3 3 3 3 3 3 3 3 3 3 3 3
3 3 3 3 3 3 2 2 2 2 2 2 2 3 3 2 1 1 1 1 1 1 1 1 2 2 2 3 3 3 4 4 3 3 3 3 3 3 3 3 3 3 3
3 3 3 3 3 3 3 3 2 2 2 2 2 3 3 2 2 2 2 2 2 1 1 1 1 1 1 2 3 4 4 5 4 4 4 4 4 3 3 3 4 3 3
3 3 3 3 3 3 3 3 2 2 2 2 2 3 2 2 2 2 2 2 2 2 2 2 1 2 3 3 3 4 4 5 5 5 6 5 4 4 3 3 4 4 4
3 3 3 3 3 3 3 3 3 3 3 3 2 2 3 3 2 3 3 2 2 2 3 3 2 2 3 4 4 4 5 6 6 5 5 5 5 4 4 4 4 3 3
3 3 3 3 2 2 3 3 3 3 2 2 2 2 3 3 3 3 3 2 2 2 3 3 3 3 4 4 5 5 5 6 6 6 5 4 4 4 4 3 4 4 4
Wind_Direction
179 178 173 177 178 173 177 184 185 183 178 182 183 183 188 190 188 191 197 193 197 200 199 200 206 199 198 199 194 196 206 202 232 255 245 234 224 234 237 230 233 235 244
185 176 175 173 171 173 180 183 179 180 183 184 180 182 188 192 192 194 200 198 201 202 203 202 208 202 200 202 199 204 211 210 213 237 248 232 235 233 231 232 238 241 244
163 170 174 173 176 182 184 181 180 180 181 181 176 184 189 194 198 200 200 202 206 205 203 203 205 198 204 204 201 205 208 210 208 218 240 239 240 236 237 255 257 253 254
148 172 183 188 187 186 179 176 180 179 179 183 187 190 193 194 198 201 201 202 207 208 206 205 205 203 207 204 205 205 200 201 202 212 231 233 235 235 206 240 271 267 267
83 178 195 194 181 170 171 178 176 179 184 182 181 185 186 191 199 198 201 202 205 206 206 206 209 208 209 209 209 203 197 203 205 214 225 230 233 218 226 224 248 276 280
32 237 203 178 172 172 175 171 171 179 182 177 183 188 193 208 208 205 203 202 203 205 209 210 211 212 217 218 219 211 204 203 208 216 227 233 239 228 224 224 237 265 276
20 -0 16 171 171 174 168 163 174 182 179 185 197 198 205 214 209 208 206 201 201 205 207 208 216 219 217 218 223 222 223 223 216 214 224 230 232 223 215 224 225 235 251
40 19 10 47 160 161 157 166 173 172 177 188 200 207 211 223 212 208 202 201 201 207 208 210 214 223 222 212 211 218 226 230 229 227 226 230 229 219 210 220 227 239 278
26 8 341 325 159 168 172 177 170 166 174 189 196 198 210 234 222 208 198 199 201 209 213 213 212 219 223 211 204 213 225 239 239 229 231 235 237 230 211 191 193 233 272
338 324 320 280 174 181 193 184 172 169 181 179 192 204 209 221 220 206 196 195 202 209 211 216 219 220 218 210 206 207 219 228 223 231 235 245 233 221 209 202 204 213 251
329 330 339 328 224 191 179 180 172 168 160 163 191 222 214 216 213 206 202 200 200 202 211 222 226 221 221 219 214 215 223 218 206 211 217 215 211 217 221 221 216 211 222
349 355 353 350 355 69 134 164 164 162 158 168 182 220 245 232 224 215 209 209 204 205 218 222 220 216 218 215 213 211 204 185 169 178 196 216 225 239 241 234 235 239 247
5 0 353 354 5 22 121 163 162 159 164 180 185 205 239 252 232 222 213 217 223 220 220 215 210 208 207 206 201 193 184 177 171 188 211 228 228 216 187 213 339 331 318
4 356 355 8 16 19 16 4 193 196 193 198 203 212 226 247 248 240 225 223 223 218 215 208 205 195 182 181 190 203 200 185 184 201 212 219 187 174 192 197 254 300 311
3 360 0 5 8 9 6 347 309 277 236 214 213 209 208 231 244 237 213 209 201 200 177 162 172 184 193 197 196 198 196 190 196 196 193 198 208 208 241 215 209 251 252
6 5 3 359 360 7 19 14 8 353 354 333 288 248 247 249 244 237 239 232 213 190 174 187 207 209 207 208 207 210 209 205 201 195 198 202 212 218 229 238 229 240 253
5 356 355 356 355 358 5 25 12 16 29 32 23 13 339 263 260 250 239 221 212 189 198 201 210 214 213 211 209 209 215 212 200 193 199 204 207 217 222 229 231 245 257
4 358 355 348 341 342 339 337 331 352 1 2 10 22 17 358 297 253 210 182 215 199 210 210 215 215 213 211 209 208 206 196 195 198 200 204 207 214 224 229 231 237 253
357 356 355 350 346 345 343 346 344 346 346 343 356 4 13 12 9 4 67 184 200 218 233 236 227 216 213 209 206 204 204 206 205 201 203 208 213 213 222 230 240 256 263
357 355 354 353 353 355 355 358 354 350 345 347 350 340 342 1 8 357 346 285 224 227 238 241 237 223 212 209 206 205 207 209 209 211 212 214 215 215 222 231 238 247 255
349 352 355 356 357 352 348 344 342 343 342 344 332 324 337 353 339 319 313 305 269 252 249 247 245 235 221 211 209 209 211 216 217 216 214 215 214 218 223 227 235 244 251
350 349 350 350 350 349 349 348 347 345 341 337 334 338 350 0 342 328 315 314 306 280 257 250 250 242 223 211 209 212 215 221 222 216 214 213 212 217 217 221 233 243 245
351 351 352 352 352 353 356 358 356 349 341 334 334 340 349 357 355 348 337 331 326 316 302 276 256 254 248 234 220 207 211 217 219 214 209 210 211 212 213 219 228 239 245
355 352 351 349 349 350 349 348 345 340 337 336 338 338 338 339 337 333 326 325 329 328 317 300 273 260 259 258 249 237 234 231 224 218 211 209 210 212 214 220 228 236 243
351 346 347 345 343 340 337 337 337 336 335 332 333 336 333 329 326 323 322 323 321 315 310 303 290 279 274 269 263 256 245 237 230 223 217 208 206 209 211 216 224 233 240
345 341 340 340 338 333 328 327 326 327 327 327 330 330 326 323 321 319 320 321 317 313 310 303 299 297 290 283 275 263 250 242 237 227 215 204 202 211 210 217 223 229 232
Height
1460 1463 1465 1467 1470 1472 1474 1477 1479 1482 1484 1486 1488 1491 1493 1494 1496 1498 1500 1502 1503 1505 1507 1508 1509 1511 1512 1514 1515 1516 1517 1518 1517 1517 1518 1519 1520 1520 1520 1520 1520 1520 1519
1457 1460 1462 1464 1466 1468 1470 1473 1476 1478 1480 1482 1484 1486 1488 1490 1492 1494 1495 1497 1499 1500 1502 1503 1505 1506 1507 1509 1510 1511 1512 1513 1514 1513 1513 1514 1515 1515 1515 1515 1515 1515 1515
1455 1457 1458 1461 1463 1465 1467 1469 1472 1474 1476 1478 1480 1482 1484 1486 1487 1489 1491 1492 1494 1496 1497 1499 1500 1501 1502 1504 1505 1506 1507 1508 1509 1509 1509 1509 1510 1510 1510 1510 1510 1510 1510
1452 1454 1455 1457 1459 1461 1464 1466 1468 1470 1472 1474 1476 1478 1479 1481 1483 1484 1486 1488 1489 1491 1492 1494 1495 1496 1497 1499 1500 1501 1502 1503 1504 1504 1504 1504 1505 1505 1505 1505 1504 1505 1504
1450 1451 1452 1454 1456 1458 1460 1462 1464 1466 1468 1470 1472 1474 1475 1477 1478 1480 1482 1483 1484 1486 1487 1489 1490 1492 1493 1494 1495 1496 1497 1498 1499 1499 1499 1499 1499 1500 1500 1500 1500 1499 1499
1448 1449 1450 1451 1453 1455 1456 1459 1460 1462 1464 1466 1468 1469 1471 1472 1474 1476 1477 1478 1480 1481 1482 1484 1485 1487 1488 1489 1491 1492 1493 1493 1493 1494 1494 1494 1494 1495 1495 1495 1495 1494 1493
1446 1447 1448 1449 1450 1452 1453 1455 1457 1459 1461 1462 1464 1465 1467 1468 1470 1472 1473 1474 1475 1476 1478 1479 1481 1482 1483 1484 1485 1487 1488 1488 1489 1490 1489 1489 1490 1490 1490 1490 1490 1489 1488
1444 1445 1446 1447 1448 1449 1450 1452 1454 1455 1457 1458 1460 1461 1463 1464 1466 1467 1469 1470 1471 1472 1473 1475 1476 1477 1478 1479 1480 1481 1482 1482 1483 1484 1485 1485 1485 1485 1485 1485 1485 1484 1484
1441 1442 1443 1444 1445 1446 1448 1449 1451 1452 1453 1455 1456 1458 1459 1460 1462 1463 1464 1465 1466 1467 1469 1470 1471 1472 1473 1474 1475 1475 1476 1477 1478 1479 1479 1479 1480 1480 1480 1480 1479 1479 1477
1439 1440 1441 1442 1443 1444 1445 1446 1448 1449 1450 1451 1452 1454 1455 1456 1457 1458 1460 1461 1462 1463 1464 1465 1466 1467 1468 1469 1469 1470 1470 1471 1472 1473 1473 1474 1474 1475 1475 1475 1475 1474 1473
1437 1438 1439 1440 1440 1441 1442 1443 1444 1445 1446 1448 1449 1450 1451 1452 1453 1454 1456 1457 1458 1458 1459 1460 1461 1462 1463 1464 1464 1465 1465 1466 1467 1467 1468 1468 1469 1469 1470 1470 1470 1469 1469
1436 1436 1436 1437 1438 1439 1439 1440 1441 1442 1443 1444 1445 1446 1447 1448 1449 1450 1451 1453 1454 1454 1455 1456 1457 1458 1458 1459 1459 1460 1461 1462 1462 1462 1462 1463 1463 1464 1464 1464 1465 1464 1464
1434 1434 1434 1435 1435 1436 1437 1437 1438 1439 1439 1440 1441 1442 1443 1444 1445 1446 1447 1448 1449 1450 1450 1451 1452 1453 1454 1455 1455 1456 1457 1457 1457 1457 1458 1458 1459 1460 1460 1460 1459 1459 1459
1432 1432 1432 1432 1433 1433 1434 1435 1435 1436 1436 1437 1438 1438 1439 1440 1441 1442 1443 1444 1445 1446 1446 1447 1448 1449 1450 1450 1451 1452 1452 1453 1453 1453 1454 1454 1455 1455 1455 1455 1455 1455 1455
1430 1430 1430 1431 1431 1431 1432 1433 1433 1434 1434 1435 1435 1436 1436 1437 1438 1439 1439 1440 1441 1441 1442 1443 1444 1445 1445 1446 1447 1447 1448 1449 1449 1449 1450 1450 1450 1450 1451 1451 1451 1451 1450
1428 1428 1429 1429 1429 1429 1430 1430 1431 1432 1432 1432 1433 1433 1433 1434 1435 1435 1436 1437 1437 1438 1439 1438 1439 1440 1441 1441 1442 1443 1444 1444 1445 1445 1446 1446 1446 1446 1446 1447 1447 1446 1446
1427 1427 1427 1427 1427 1428 1428 1428 1428 1429 1429 1430 1430 1430 1430 1431 1431 1432 1432 1433 1433 1434 1434 1434 1435 1436 1436 1437 1438 1438 1439 1440 1440 1441 1441 1442 1442 1442 1442 1442 1442 1442 1442
1426 1426 1426 1426 1426 1426 1426 1426 1426 1426 1426 1426 1427 1427 1427 1427 1428 1428 1428 1429 1429 1430 1430 1431 1431 1432 1432 1433 1433 1434 1435 1435 1436 1436 1437 1437 1438 1438 1438 1438 1438 1438 1437
1426 1425 1425 1424 1424 1424 1424 1424 1424 1424 1424 1424 1424 1424 1424 1424 1424 1425 1425 1425 1426 1426 1426 1427 1427 1428 1428 1429 1429 1430 1431 1431 1432 1432 1432 1433 1434 1434 1434 1434 1434 1434 1434
1425 1425 1424 1423 1423 1423 1423 1423 1422 1422 1422 1422 1422 1422 1422 1422 1421 1421 1422 1422 1422 1423 1423 1423 1424 1424 1425 1425 1425 1426 1426 1427 1427 1428 1428 1429 1429 1429 1430 1430 1430 1430 1430
1425 1424 1423 1422 1422 1421 1421 1421 1421 1420 1420 1420 1420 1420 1420 1420 1419 1419 1419 1419 1419 1420 1420 1420 1420 1421 1421 1421 1422 1422 1422 1422 1423 1423 1424 1424 1425 1425 1426 1426 1426 1426 1426
1424 1423 1422 1422 1421 1421 1420 1420 1419 1419 1419 1418 1418 1418 1418 1418 1417 1417 1417 1417 1417 1417 1417 1417 1417 1417 1417 1417 1417 1418 1418 1418 1419 1419 1419 1420 1421 1421 1422 1422 1422 1422 1422
1424 1423 1422 1421 1420 1420 1419 1419 1418 1418 1417 1417 1417 1416 1416 1415 1415 1414 1414 1414 1414 1413 1413 1413 1413 1413 1413 1413 1414 1414 1414 1414 1415 1415 1415 1416 1417 1417 1418 1418 1418 1418 1418
1423 1422 1421 1420 1419 1418 1418 1417 1417 1416 1416 1415 1415 1414 1414 1413 1412 1412 1412 1411 1410 1410 1410 1409 1409 1409 1409 1409 1410 1410 1410 1410 1410 1411 1412 1412 1413 1413 1414 1414 1415 1415 1415
1422 1421 1420 1419 1418 1417 1416 1415 1415 1414 1413 1413 1412 1412 1411 1411 1410 1409 1409 1408 1408 1407 1406 1406 1406 1406 1406 1406 1406 1406 1406 1406 1407 1407 1408 1409 1409 1410 1410 1411 1411 1411 1411
1421 1420 1418 1417 1416 1415 1414 1413 1413 1412 1411 1411 1410 1410 1409 1408 1407 1407 1406 1406 1405 1404 1403 1403 1403 1403 1402 1402 1402 1402 1403 1403 1404 1404 1405 1405 1405 1406 1406 1407 1407 1407 1407